Weather History for KMFI - March, 2014

Change the Weather History Date:

Saturday, March 1, 2014

  Actual Average Record
Temperature  
Mean Temperature 3 °F -  
Max Temperature 8 °F 35 °F 57 °F (1992)
Min Temperature -2 °F 15 °F -28 °F (1962)
Degree Days  
Heating Degree Days 62    
Moisture  
Dew Point -7 °F    
Average Humidity 65    
Maximum Humidity 80    
Minimum Humidity 54    
Precipitation  
Precipitation 0.00 in - - ()
Sea Level Pressure  
Sea Level Pressure 30.32 in    
Wind  
Wind Speed 12 mph (NW)    
Max Wind Speed 16 mph    
Max Gust Speed -    
Visibility 9 miles    
Events Snow    
Averages and records for this station are not official NWS values.
T = Trace of Precipitation, MM = Missing Value Source: NWS Daily Summary

Daily Weather History Graph

Daily Weather History Graph

Search for Another Location

Airport or City:

Trip Planner

Search our weather history database for the weather conditions in past years. The results will help you decide how hot, cold, wet, or windy it might be!

Date:

Astronomy

Mar. 01, 2014 Rise Set
Actual Time 6:38 AM CST 5:48 PM CST
Civil Twilight 6:08 AM CST 6:17 PM CST
Nautical Twilight 5:35 AM CST 6:51 PM CST
Astronomical Twilight 5:01 AM CST 7:25 PM CST
Moon 6:29 AM CST (3/1) 6:39 PM CST (3/1)
Length of Visible Light 12h 08m
Length of Day
11h 10m
New Moon, 0% of the Moon is Illuminated
Mar 1
New Moon
Mar 8
First Quarter
Mar 16
Full
Mar 23
Last Quarter
Mar 30
New

Hourly Weather History & Observations

Time (CST) Temp. Windchill Dew Point Humidity Pressure Visibility Wind Dir Wind Speed Gust Speed Precip Events Conditions
12:54 AM 7.0 °F -8.3 °F 1.9 °F 80% 30.13 in 10.0 mi NW 11.5 mph - N/A   Scattered Clouds
1:54 AM 8.1 °F -7.0 °F 1.0 °F 73% 30.14 in 10.0 mi NNW 11.5 mph - N/A   Scattered Clouds
2:54 AM 5.0 °F -10.8 °F -2.0 °F 73% 30.16 in 10.0 mi NNW 11.5 mph - N/A   Partly Cloudy
3:54 AM 5.0 °F -10.8 °F -4.0 °F 66% 30.18 in 10.0 mi North 11.5 mph - N/A   Overcast
4:54 AM 3.0 °F -15.5 °F -6.0 °F 66% 30.20 in 10.0 mi NNW 15.0 mph - N/A   Partly Cloudy
5:54 AM -0.0 °F -15.3 °F -8.0 °F 69% 30.25 in 10.0 mi NNW 9.2 mph - N/A   Partly Cloudy
6:54 AM 1.0 °F -14.9 °F -7.1 °F 69% 30.30 in 10.0 mi NNW 10.4 mph - N/A   Clear
7:54 AM 1.0 °F -16.6 °F -6.0 °F 72% 30.31 in 10.0 mi NNW 12.7 mph - N/A   Overcast
8:54 AM 1.9 °F -13.8 °F -6.0 °F 69% 30.33 in 10.0 mi NW 10.4 mph - N/A   Overcast
9:54 AM 3.0 °F -13.3 °F -6.0 °F 66% 30.34 in 10.0 mi NNW 11.5 mph - N/A   Mostly Cloudy
10:54 AM 3.9 °F -10.4 °F -7.1 °F 60% 30.34 in 10.0 mi NW 9.2 mph - N/A   Overcast
11:54 AM 3.9 °F -12.2 °F -6.0 °F 64% 30.36 in 10.0 mi NW 11.5 mph - N/A   Overcast
12:54 PM 3.0 °F -14.1 °F -5.1 °F 69% 30.35 in 6.0 mi NW 12.7 mph - 0.00 in   Haze
1:51 PM 3.2 °F -13.9 °F -4.0 °F 72% 30.26 in 2.5 mi NW 12.7 mph - 0.00 in Snow Light Snow
1:54 PM 3.9 °F -11.3 °F -4.0 °F 70% 30.36 in 2.5 mi WNW 10.4 mph - 0.00 in Snow Light Snow
2:12 PM 3.9 °F -13.7 °F -5.1 °F 66% 30.26 in 4.0 mi WNW 13.8 mph - 0.00 in Snow Light Snow
2:54 PM 3.9 °F -11.3 °F -7.1 °F 60% 30.37 in 10.0 mi WNW 10.4 mph - 0.00 in   Scattered Clouds
3:54 PM 3.0 °F -15.5 °F -9.0 °F 57% 30.37 in 10.0 mi NW 15.0 mph - N/A   Overcast
4:54 PM 1.9 °F -17.5 °F -9.0 °F 60% 30.38 in 10.0 mi NW 16.1 mph - N/A   Overcast
5:54 PM 1.9 °F -15.5 °F -9.9 °F 58% 30.39 in 10.0 mi NW 12.7 mph - N/A   Mostly Cloudy
6:54 PM 1.0 °F -18.0 °F -9.9 °F 60% 30.42 in 10.0 mi NW 15.0 mph - N/A   Scattered Clouds
7:54 PM -0.0 °F -20.1 °F -11.0 °F 60% 30.43 in 10.0 mi WNW 16.1 mph - N/A   Clear
8:54 PM -0.0 °F -18.7 °F -11.9 °F 57% 30.43 in 10.0 mi WNW 13.8 mph - N/A   Overcast
9:54 PM -0.9 °F -21.2 °F -13.0 °F 57% 30.43 in 10.0 mi NW 16.1 mph - N/A   Overcast
10:54 PM -2.0 °F -20.5 °F -15.0 °F 54% 30.45 in 10.0 mi NW 12.7 mph - N/A   Overcast
11:54 PM -2.9 °F -20.8 °F -16.1 °F 54% 30.44 in 10.0 mi NW 11.5 mph - N/A   Overcast